Regional Weather Roundup
Issued by NWS

Home | Current Version | Previous Version | Graphics & Text | Print | Product List | Glossary On
Versions: 1 2 3 4 5 6 7 8 9 10 11 12 13 14 15 16 17 18 19 20 21 22 23 24 25 26 27 28 29 30 31 32 33 34 35 36 37 38 39 40 41 42 43 44 45 46 47 48 49 50
000
ASUS43 KLOT 182358
RWRIL

ILLINOIS REGIONAL WEATHER ROUNDUP
NATIONAL WEATHER SERVICE CHICAGO/ROMEOVILLE IL
600 PM CST THU DEC 18 2014

NOTE: "FAIR" INDICATES FEW OR NO CLOUDS BELOW 12,000 FEET WITH NO
SIGNIFICANT WEATHER AND/OR OBSTRUCTIONS TO VISIBILITY.

* THESE STATIONS ARE NOT UNDER NWS QUALITY CONTROL. THEY ALSO MAY NOT
  REPORT WEATHER SUCH AS PRECIPITATION OR FOG.

ILZ001-002-007-009-015-016-024-190100-
NORTHWEST ILLINOIS

CITY           SKY/WX    TMP DP  RH WIND       PRES   REMARKS
MOLINE         CLOUDY    26  17  68 N5        30.28R WCI  20
6HR MIN TEMP:  26; 6HR MAX TEMP:  30;

$$

ILZ003-004-008-010-011-017-018-190100-
NORTH CENTRAL ILLINOIS

CITY           SKY/WX    TMP DP  RH WIND       PRES   REMARKS
ROCKFORD       NOT AVBL
$$

ILZ005-006-012>014-019>023-190100-
NORTHEAST ILLINOIS

CITY           SKY/WX    TMP DP  RH WIND       PRES   REMARKS
CHICAGO-OHARE  CLOUDY    28  19  69 N7        30.24R WCI  21
6HR MIN TEMP:  26; 6HR MAX TEMP:  28;

CHICAGO-MIDWAY CLOUDY    29  19  66 SW5       30.25R WCI  24
6HR MIN TEMP:  27; 6HR MAX TEMP:  30;

AURORA         CLOUDY    27  19  72 NW5       30.26R WCI  22
6HR MIN TEMP:  25; 6HR MAX TEMP:  28;

WAUKEGAN       NOT AVBL
DUPAGE AIRPORT CLOUDY    27  19  72 W8        30.24R WCI  19
6HR MIN TEMP:  26; 6HR MAX TEMP:  29;

WHEELING       CLOUDY    28  19  69 N6        30.26R WCI  22
6HR MIN TEMP:  25; 6HR MAX TEMP:  28;

NORTHERLY ISL    N/A     28  20  71 E1          N/A
$$

LMZ740>746-190100-
SOUTHERN LAKE MICHIGAN

STATION/POSITION SKY/WX   TEMP    WIND        PRES    VSBY  WAVE
                          AIR SEA DIR/SP/G                  HT/PER
                          (F)     (DEG/KT/KT) (MB)    (MI)  (FT/S)
WAUKEGAN HARBOR            28      CALM  /  3   N/A
HARRISON CRIB              28     350/  4/  6   N/A
BURNHAM HARBOR             28      30/  1/  5   N/A
CALUMET HARBOR             27     220/  3/  4 1022.9R
$$

ILZ025>027-034>036-040-047-049-050-058-095>099-190100-
WEST-CENTRAL ILLINOIS

CITY           SKY/WX    TMP DP  RH WIND       PRES   REMARKS
$$

ILZ028>032-037-038-041>044-048-051>054-059>061-190100-
CENTRAL ILLINOIS

CITY           SKY/WX    TMP DP  RH WIND       PRES   REMARKS
PEORIA         NOT AVBL
SPRINGFIELD    CLOUDY    30  24  78 N5        30.27R WCI  25
6HR MIN TEMP:  29; 6HR MAX TEMP:  32;

TAYLORVILLE    NOT AVBL
$$

ILZ033-039-045-046-055>057-062-063-190100-
EAST-CENTRAL ILLINOIS

CITY           SKY/WX    TMP DP  RH WIND       PRES   REMARKS
CHAMPAIGN      CLOUDY    28  22  78 NW3       30.25S
MATTOON        CLOUDY    28  22  78 N6        30.24S WCI  22
$$

ILZ079-100>102-190100-
SOUTHWEST ILLINOIS

CITY           SKY/WX    TMP DP  RH WIND       PRES   REMARKS
ALTON          CLOUDY    32  27  80 NE7       30.26R WCI  26
CAHOKIA*       CLOUDY    35  30  82 CALM      30.25S
$$

ILZ064>066-069>071-074>076-080>082-084>086-088>090-092>094-190100-
SOUTH-CENTRAL ILLINOIS

CITY           SKY/WX    TMP DP  RH WIND       PRES   REMARKS
CARBONDALE     CLOUDY    34  29  82 CALM      30.24S
6HR MIN TEMP:  32; 6HR MAX TEMP:  35;

MARION         CLOUDY    36  30  80 NE6       30.25R WCI  31
$$

ILZ067-068-072-073-078-083-087-091-190100-
SOUTHEAST ILLINOIS

CITY           SKY/WX    TMP DP  RH WIND       PRES   REMARKS
LAWRENCEVILLE  CLOUDY    31  24  75 NE6       30.26R WCI  25
$$

ABBREVIATIONS USED IN REMARKS
   TC - TEMPERATURE IN CELSIUS
  WCI - WIND CHILL INDEX
   HX - HEAT INDEX
  VSB - VISIBILITY
$$




USA.gov is the U.S. government's official web portal to all federal, state and local government web resources and services.